{"data":{"norad_id":66765,"epoch":"2026-05-24T22:41:21.568992Z","epoch_age_seconds":73573,"freshness":"FRESH","line1":"1 66765U 25276DD  26144.94538853  .00009275  00000+0  39650-3 0  9992","line2":"2 66765  97.4218 219.5472 0001557 101.7372 258.4040 15.23064751 26939","mean_motion":15.23064751,"eccentricity":0.0001557,"inclination_deg":97.4218,"raan_deg":219.5472,"arg_perigee_deg":101.7372,"mean_anomaly_deg":258.404,"bstar":0.0003965,"rev_number":2693,"period_min":94.546210136801,"perigee_km":495.53236956338,"apogee_km":497.67316352668,"semimajor_km":6874.739766545,"source":"CELESTRAK","updated_at":"2026-05-25T13:38:06.474318Z"}}